Regional Weather Roundup
Issued by NWS Goodland, KS

Home | Current Version | Previous Version | Graphics & Text | Print | Product List | Glossary On
Versions: 1 2 3 4 5 6 7 8 9 10 11 12 13 14 15 16 17 18 19 20 21 22 23 24 25 26 27 28 29 30 31 32 33 34 35 36 37 38 39 40 41 42 43 44 45 46 47 48 49 50
000
ASUS43 KGLD 202108
RWRGLD

GOODLAND FORECAST AREA HOURLY WEATHER ROUNDUP
NATIONAL WEATHER SERVICE GOODLAND KS
300 PM MDT MON APR 20 2015

...OFFICIAL OBSERVATIONS...

CITY           SKY/WX    TMP DP  RH WIND       PRES   REMARKS
GOODLAND KS    CLOUDY    55  29  36 NW9       29.91F
HILL CITY KS   PTSUNNY   58  26  29 NW14G23   29.91F
IMPERIAL NEB   PTSUNNY   56  24  29 NW16G28   29.89F
MCCOOK NEB     PTSUNNY   61  23  23 W25       29.88F
AKRON CO       PTSUNNY   55  26  32 NW20G26   29.91F
BURLINGTON CO  CLOUDY    54  30  40 NW10      29.93F
LIMON CO       PTSUNNY   54  28  36 N8        29.92F
$$

...UNOFFICIAL OBSERVATIONS...

CITY           SKY/WX    TMP DP  RH WIND       PRES   REMARKS
COLBY KS       CLOUDY    57  34  41 W8        29.92F
GOVE KS          N/A     59  32  36 MISG        N/A
LENORA KS        N/A     57  32  39 MISG        N/A
NORTON KS      PTSUNNY   59  19  21 W17G30    29.88
SHARON SPRINGS   N/A     58  38  47 MISG        N/A
TRIBUNE KS     PTSUNNY   59  37  44 W8G16     29.95F
KIT CARSON CO    N/A     55  32  42 MISG        N/A
YUMA CO          N/A     54  28  36 W16         N/A
$$


USA.gov is the U.S. government's official web portal to all federal, state and local government web resources and services.